Weather History for Andalusia, AL

Change the Weather History Date:

Wednesday, August 13, 2014

  Actual Average (KCEW) Record (KCEW)
Temperature  
Mean Temperature 85 °F -  
Max Temperature 95 °F 91 °F 98 °F (1951)
Min Temperature 75 °F 69 °F 64 °F (1979)
Cooling Degree Days 20    
Growing Degree Days 35 (Base 50)    
Moisture  
Dew Point 71 °F    
Average Humidity 73    
Maximum Humidity 89    
Minimum Humidity 43    
Precipitation  
Precipitation 0.00 in - - ()
Sea Level Pressure  
Sea Level Pressure 29.95 in    
Wind  
Wind Speed 2 mph (North)    
Max Wind Speed 8 mph    
Max Gust Speed -    
Visibility 7 miles    
Events Fog    
Averages and records for this station are not official NWS values.
T = Trace of Precipitation, MM = Missing Value Source: NWS Daily Summary

Daily Weather History Graph

Daily Weather History Graph

Search for Another Location

Airport:

Trip Planner

Search our weather history database for the weather conditions in past years. The results will help you decide how hot, cold, wet, or windy it might be!

Date:

Astronomy

Aug. 13, 2014 Rise Set
Actual Time 6:09 AM CDT 7:30 PM CDT
Civil Twilight 5:44 AM CDT 7:56 PM CDT
Nautical Twilight 5:13 AM CDT 8:26 PM CDT
Astronomical Twilight 4:41 AM CDT 8:58 PM CDT
Moon 9:33 PM CDT (8/13) 9:20 AM CDT (8/13)
Length of Visible Light 14h 11m
Length of Day
13h 20m
Waning Gibbous, 87% of the Moon is Illuminated
Aug 13
Waning Gibbous
Aug 17
Last Quarter
Aug 25
New
Sep 2
First Quarter
Sep 8
Full

Hourly Weather History & Observations

Time (CDT) Temp. Heat Index Dew Point Humidity Pressure Visibility Wind Dir Wind Speed Gust Speed Precip Events Conditions
12:56 AM 77.0 °F - 72.0 °F 84% 29.93 in 10.0 mi Calm Calm - N/A   Clear
1:56 AM 75.9 °F - 71.1 °F 85% 29.93 in 10.0 mi West 3.5 mph - N/A   Scattered Clouds
2:35 AM 75.2 °F - 71.6 °F 89% 29.93 in 7.0 mi Calm Calm - N/A   Mostly Cloudy
2:43 AM 75.2 °F - 71.6 °F 89% 29.93 in 2.5 mi Calm Calm - N/A   Mostly Cloudy
2:53 AM 75.2 °F - 71.6 °F 89% 29.93 in 1.5 mi Calm Calm - N/A   Overcast
2:56 AM 75.9 °F - 72.0 °F 87% 29.92 in 1.5 mi Calm Calm - N/A   Overcast
3:02 AM 75.2 °F - 71.6 °F 89% 29.93 in 1.0 mi Calm Calm - N/A   Overcast
3:15 AM 75.2 °F - 71.6 °F 89% 29.93 in 0.5 mi Calm Calm - N/A Fog Fog
3:41 AM 75.2 °F - 71.6 °F 89% 29.94 in 0.2 mi Calm Calm - N/A Fog Fog
3:56 AM 75.0 °F - 71.1 °F 87% 29.92 in 0.5 mi Calm Calm - N/A Fog Fog
4:09 AM 75.2 °F - 71.6 °F 89% 29.94 in 1.2 mi North 3.5 mph - N/A   Overcast
4:12 AM 75.2 °F - 71.6 °F 89% 29.94 in 2.0 mi NNW 3.5 mph - N/A   Overcast
4:21 AM 75.2 °F - 71.6 °F 89% 29.94 in 5.0 mi NNW 3.5 mph - N/A   Overcast
4:45 AM 75.2 °F - 71.6 °F 89% 29.94 in 8.0 mi North 3.5 mph - N/A   Scattered Clouds
4:56 AM 75.0 °F - 71.1 °F 87% 29.93 in 9.0 mi Calm Calm - N/A   Clear
5:56 AM 75.0 °F - 71.1 °F 87% 29.95 in 10.0 mi North 3.5 mph - N/A   Clear
6:56 AM 75.9 °F - 71.1 °F 85% 29.96 in 8.0 mi Calm Calm - N/A   Clear
7:56 AM 80.1 °F 83.8 °F 72.0 °F 76% 29.97 in 9.0 mi NNE 3.5 mph - N/A   Clear
8:56 AM 84.9 °F 90.7 °F 72.0 °F 65% 29.98 in 10.0 mi NE 3.5 mph - N/A   Clear
9:56 AM 88.0 °F 94.7 °F 72.0 °F 59% 29.99 in 10.0 mi North 4.6 mph - N/A   Clear
10:56 AM 90.0 °F 95.4 °F 70.0 °F 52% 29.99 in 10.0 mi Calm Calm - N/A   Clear
11:56 AM 93.0 °F 100.7 °F 72.0 °F 50% 29.98 in 10.0 mi NNE 5.8 mph - N/A   Clear
12:56 PM 93.0 °F 99.0 °F 70.0 °F 47% 29.96 in 10.0 mi East 3.5 mph - N/A   Mostly Cloudy
1:56 PM 93.0 °F 97.9 °F 69.1 °F 45% 29.95 in 10.0 mi NNW 3.5 mph - N/A   Mostly Cloudy
2:56 PM 95.0 °F 101.3 °F 70.0 °F 44% 29.94 in 10.0 mi North 3.5 mph - N/A   Mostly Cloudy
3:56 PM 95.0 °F 101.3 °F 70.0 °F 44% 29.93 in 10.0 mi NNE 8.1 mph - N/A   Partly Cloudy
4:56 PM 93.9 °F 98.6 °F 68.0 °F 43% 29.92 in 10.0 mi North 8.1 mph - N/A   Partly Cloudy
5:56 PM 90.0 °F 95.4 °F 70.0 °F 52% 29.93 in 10.0 mi NNE 5.8 mph - N/A   Partly Cloudy
6:56 PM 88.0 °F 92.9 °F 70.0 °F 55% 29.94 in 10.0 mi NE 3.5 mph - N/A   Clear
7:56 PM 84.9 °F 89.4 °F 70.0 °F 61% 29.95 in 10.0 mi Calm Calm - N/A   Clear
11:56 PM 78.1 °F - 66.9 °F 68% 29.98 in 10.0 mi Calm Calm - N/A   Clear